sat.trackr.live / text

‹ back to catalog

STARLINK-34280

NORAD 64594 · 2025-137A

PAYLOAD ACTIVE UNKNOWN

§ Identity

Operator
Country
US
Launch date
2025-06-25
Launch site
AFETR
Launch vehicle
Mass (kg)
RCS (m²)

Purposes: comms

External: N2YO · Heavens-Above · Gunter

§ Orbital elements

Epoch: 2026-09-20T23:15:16.454880Z

Period
93.85 min
Inclination
53.1612°
Eccentricity
0.0002130
Mean motion
15.34400891 rev/d
Perigee alt
461.2 km
Apogee alt
464.2 km
Semi-major
6,840.8 km
B*
4.3185e-4
RAAN
145.3085°
Arg perigee
90.3186°
Mean anomaly
269.8060°
Rev number
7,067

§ Raw data

STARLINK-342801 64594U 25137A   26263.96894045  .00014243  00000+0  43185-3 0  99972 64594  53.1612 145.3085 0002130  90.3186 269.8060 15.34400891 70673

JSON: /api/v1/satellites/64594 · /tle

For live sub-satellite position, see the globe view (requires WebGL).

§ Visibility from observer

Set your observer location to see the next 7 days of passes ≥ 10°. The values pass through the URL so the page stays shareable.

No JS? Fill the form by hand. The geolocation button needs JavaScript.